Location: Briis
(48.6240°N, 2.1211°E)
Time: 11:23:25
(UTC+00:00)

Cosmos 1980 Rocket - Pass Details

Date: 25 September 2020
Orbit: 831 x 848 km, 71.0° (Epoch: 26 October)

Event Time Altitude Azimuth Distance (km) Brightness Sun altitude
Exits shadow 02:47:35 64° 330° (NNW) 936 2.3 -28.1°
Drops below altitude 10° 02:52:46 10° 24° (NNE) 2,467 5.3 -27.4°
Sets 02:55:14 0° 27° (NNE) 3,403 6.3 -27.1°
